Time,TemperatureF,DewpointF,PressureIn,WindDirection,WindDirectionDegrees,WindSpeedMPH,WindSpeedGustMPH,Humidity,HourlyPrecipIn,Conditions,Clouds,dailyrainin,SoftwareType,DateUTC
2013-03-17 00:00:00,53.7,50.0,31.02,SSE,148,0.6,1.8,86,0.00,NA,NA,-99.99,BCS,2013-03-17 07:00:00,
2013-03-17 00:05:00,53.5,50.0,31.02,SSE,150,0.9,2.1,87,0.00,NA,NA,-99.99,BCS,2013-03-17 07:05:00,
2013-03-17 00:10:00,53.4,49.0,31.02,SSE,152,0.9,1.2,87,0.00,NA,NA,-99.99,BCS,2013-03-17 07:10:00,
2013-03-17 00:15:00,52.9,49.0,31.01,South,191,1.2,2.1,88,0.00,NA,NA,-99.99,BCS,2013-03-17 07:15:00,
2013-03-17 00:20:00,52.5,50.0,31.01,SSW,192,0.0,1.8,89,0.00,NA,NA,-99.99,BCS,2013-03-17 07:20:00,
2013-03-17 00:25:00,52.6,50.0,31.01,South,186,1.2,1.8,90,0.00,NA,NA,-99.99,BCS,2013-03-17 07:25:00,
2013-03-17 00:30:00,52.3,49.0,31.01,South,180,1.5,2.1,90,0.00,NA,NA,-99.99,BCS,2013-03-17 07:30:00,
2013-03-17 00:40:00,52.2,49.0,31.02,South,187,1.2,1.8,92,0.00,NA,NA,-99.99,BCS,2013-03-17 07:40:00,
2013-03-17 00:45:00,52.1,49.0,31.01,South,188,0.0,1.8,91,0.00,NA,NA,-99.99,BCS,2013-03-17 07:45:00,
2013-03-17 00:55:00,51.7,50.0,31.02,South,187,1.2,1.8,92,0.00,NA,NA,-99.99,BCS,2013-03-17 07:55:00,
2013-03-17 01:00:00,51.2,49.0,31.01,South,177,0.0,1.8,92,0.00,NA,NA,-99.99,BCS,2013-03-17 08:00:00,
2013-03-17 01:05:00,50.8,49.0,31.01,WSW,241,1.2,2.1,93,0.00,NA,NA,-99.99,BCS,2013-03-17 08:05:00,
2013-03-17 01:10:00,50.5,49.0,31.01,WSW,238,0.0,2.1,94,0.00,NA,NA,-99.99,BCS,2013-03-17 08:10:00,
2013-03-17 01:15:00,50.4,48.0,31.02,WSW,238,0.9,1.2,95,0.00,NA,NA,-99.99,BCS,2013-03-17 08:15:00,
2013-03-17 01:20:00,50.4,49.0,31.02,WSW,244,1.8,1.8,95,0.00,NA,NA,-99.99,BCS,2013-03-17 08:20:00,
2013-03-17 01:25:00,50.2,49.0,31.02,West,262,3.3,3.3,96,0.00,NA,NA,-99.99,BCS,2013-03-17 08:25:00,
2013-03-17 01:30:00,50.5,50.0,31.02,West,272,1.8,4.5,97,0.00,NA,NA,-99.99,BCS,2013-03-17 08:30:00,
2013-03-17 01:35:00,50.9,50.0,31.02,WNW,294,4.8,4.8,97,0.00,NA,NA,-99.99,BCS,2013-03-17 08:35:00,
2013-03-17 01:40:00,51.5,50.0,31.02,WSW,239,2.7,5.7,97,0.00,NA,NA,-99.99,BCS,2013-03-17 08:40:00,
2013-03-17 01:50:00,52.2,51.0,31.02,NNE,12,0.9,4.5,96,0.00,NA,NA,-99.99,BCS,2013-03-17 08:50:00,
2013-03-17 01:55:00,52.5,51.0,31.02,WNW,287,1.8,4.5,95,0.00,NA,NA,-99.99,BCS,2013-03-17 08:55:00,
2013-03-17 02:00:00,52.5,51.0,31.02,West,277,1.2,4.5,94,0.00,NA,NA,-99.99,BCS,2013-03-17 09:00:00,
2013-03-17 02:10:00,52.4,50.0,31.02,West,270,0.9,1.8,93,0.00,NA,NA,-99.99,BCS,2013-03-17 09:10:00,
2013-03-17 02:15:00,52.2,50.0,31.02,West,263,1.8,3.6,92,0.00,NA,NA,-99.99,BCS,2013-03-17 09:15:00,
2013-03-17 02:20:00,52.1,50.0,31.02,NW,305,0.9,2.7,92,0.00,NA,NA,-99.99,BCS,2013-03-17 09:20:00,
2013-03-17 02:25:00,52.0,50.0,31.02,NNW,340,0.9,2.7,92,0.00,NA,NA,-99.99,BCS,2013-03-17 09:25:00,
2013-03-17 02:30:00,51.8,50.0,31.02,NNW,339,0.0,1.2,92,0.00,NA,NA,-99.99,BCS,2013-03-17 09:30:00,
2013-03-17 02:40:00,51.3,49.0,31.02,SSW,197,1.2,2.1,94,0.00,NA,NA,-99.99,BCS,2013-03-17 09:40:00,
2013-03-17 02:45:00,51.1,49.0,31.02,WSW,246,0.9,1.5,94,0.00,NA,NA,-99.99,BCS,2013-03-17 09:45:00,
2013-03-17 02:50:00,51.1,49.0,31.02,West,273,1.2,2.4,94,0.00,NA,NA,-99.99,BCS,2013-03-17 09:50:00,
2013-03-17 03:00:00,51.0,49.0,31.02,WNW,287,0.9,4.5,95,0.00,NA,NA,-99.99,BCS,2013-03-17 10:00:00,
2013-03-17 03:05:00,51.2,50.0,31.02,WSW,242,0.0,4.5,95,0.00,NA,NA,-99.99,BCS,2013-03-17 10:05:00,
2013-03-17 03:15:00,51.0,50.0,31.01,WSW,245,3.6,4.5,95,0.00,NA,NA,-99.99,BCS,2013-03-17 10:15:00,
2013-03-17 03:25:00,51.6,50.0,31.02,West,264,1.2,3.0,95,0.00,NA,NA,-99.99,BCS,2013-03-17 10:25:00,
2013-03-17 03:30:00,51.7,50.0,31.01,West,267,2.1,3.0,94,0.00,NA,NA,-99.99,BCS,2013-03-17 10:30:00,
2013-03-17 03:35:00,51.7,50.0,31.01,WNW,292,2.7,3.6,93,0.00,NA,NA,-99.99,BCS,2013-03-17 10:35:00,
2013-03-17 03:40:00,51.9,50.0,31.01,WNW,286,1.5,5.4,93,0.00,NA,NA,-99.99,BCS,2013-03-17 10:40:00,
2013-03-17 03:45:00,52.3,50.0,31.01,NW,315,2.4,4.8,92,0.00,NA,NA,-99.99,BCS,2013-03-17 10:45:00,
2013-03-17 03:50:00,52.4,49.0,31.02,WNW,293,2.4,3.3,91,0.00,NA,NA,-99.99,BCS,2013-03-17 10:50:00,
2013-03-17 03:55:00,52.7,50.0,31.02,NW,311,2.4,4.2,90,0.00,NA,NA,-99.99,BCS,2013-03-17 10:55:00,
2013-03-17 04:00:00,52.8,50.0,31.02,NW,321,1.8,3.6,88,0.00,NA,NA,-99.99,BCS,2013-03-17 11:00:00,
2013-03-17 04:05:00,52.9,49.0,31.02,NW,317,1.2,3.9,87,0.00,NA,NA,-99.99,BCS,2013-03-17 11:05:00,
2013-03-17 04:10:00,52.8,49.0,31.02,NNW,333,1.8,2.7,86,0.00,NA,NA,-99.99,BCS,2013-03-17 11:10:00,
2013-03-17 04:15:00,52.5,49.0,31.01,NW,324,0.6,2.7,86,0.00,NA,NA,-99.99,BCS,2013-03-17 11:15:00,
2013-03-17 04:20:00,52.1,48.0,31.01,WNW,288,2.4,4.2,87,0.00,NA,NA,-99.99,BCS,2013-03-17 11:20:00,
2013-03-17 04:25:00,51.9,48.0,31.01,NW,311,0.6,4.8,87,0.00,NA,NA,-99.99,BCS,2013-03-17 11:25:00,
2013-03-17 04:30:00,51.5,48.0,31.01,West,274,1.8,4.2,87,0.00,NA,NA,-99.99,BCS,2013-03-17 11:30:00,
2013-03-17 04:35:00,51.4,48.0,31.00,WSW,250,1.5,3.3,88,0.00,NA,NA,-99.99,BCS,2013-03-17 11:35:00,
2013-03-17 04:40:00,50.7,48.0,31.01,East,93,2.1,2.7,89,0.00,NA,NA,-99.99,BCS,2013-03-17 11:40:00,
2013-03-17 04:45:00,50.4,48.0,31.01,East,79,0.6,3.3,92,0.00,NA,NA,-99.99,BCS,2013-03-17 11:45:00,
2013-03-17 04:50:00,50.1,48.0,31.01,ESE,117,0.3,1.8,94,0.00,NA,NA,-99.99,BCS,2013-03-17 11:50:00,
2013-03-17 04:55:00,49.6,48.0,31.00,SSE,160,0.9,2.4,94,0.00,NA,NA,-99.99,BCS,2013-03-17 11:55:00,
2013-03-17 05:05:00,49.2,48.0,31.00,SSE,156,1.5,1.8,96,0.00,NA,NA,-99.99,BCS,2013-03-17 12:05:00,
2013-03-17 05:15:00,48.5,47.0,31.01,South,185,0.6,1.8,98,0.00,NA,NA,-99.99,BCS,2013-03-17 12:15:00,
2013-03-17 05:20:00,48.3,47.0,31.01,South,185,0.6,1.5,99,0.00,NA,NA,-99.99,BCS,2013-03-17 12:20:00,
2013-03-17 05:25:00,48.0,48.0,31.01,South,189,0.9,1.5,99,0.00,NA,NA,-99.99,BCS,2013-03-17 12:25:00,
2013-03-17 05:35:00,47.8,48.0,31.01,South,188,0.0,0.0,100,0.00,NA,NA,-99.99,BCS,2013-03-17 12:35:00,
2013-03-17 05:40:00,47.7,48.0,31.01,South,171,0.3,0.9,100,0.00,NA,NA,-99.99,BCS,2013-03-17 12:40:00,
2013-03-17 05:45:00,47.9,48.0,31.01,SSE,166,0.9,2.1,100,0.00,NA,NA,-99.99,BCS,2013-03-17 12:45:00,
2013-03-17 05:50:00,47.8,48.0,31.01,SSE,162,0.0,1.2,100,0.00,NA,NA,-99.99,BCS,2013-03-17 12:50:00,
2013-03-17 05:55:00,47.7,48.0,31.01,SSE,162,0.0,0.6,100,0.00,NA,NA,-99.99,BCS,2013-03-17 12:55:00,
2013-03-17 06:00:00,47.7,48.0,31.01,SSE,162,0.9,1.2,100,0.00,NA,NA,-99.99,BCS,2013-03-17 13:00:00,
2013-03-17 06:05:00,47.9,48.0,31.00,SSE,164,0.0,1.8,100,0.00,NA,NA,-99.99,BCS,2013-03-17 13:05:00,
2013-03-17 06:10:00,47.7,48.0,31.01,SSE,164,0.0,0.9,100,0.00,NA,NA,-99.99,BCS,2013-03-17 13:10:00,
2013-03-17 06:15:00,47.3,47.0,31.01,South,171,0.3,1.8,100,0.00,NA,NA,-99.99,BCS,2013-03-17 13:15:00,
2013-03-17 06:20:00,47.2,47.0,31.01,SSW,207,1.5,2.1,100,0.00,NA,NA,-99.99,BCS,2013-03-17 13:20:00,
2013-03-17 06:25:00,47.1,47.0,31.01,SSW,208,1.5,2.4,100,0.00,NA,NA,-99.99,BCS,2013-03-17 13:25:00,
2013-03-17 06:30:00,46.9,47.0,31.02,SSW,212,0.9,1.8,100,0.00,NA,NA,-99.99,BCS,2013-03-17 13:30:00,
2013-03-17 06:35:00,46.7,47.0,31.02,WNW,292,0.0,2.7,100,0.00,NA,NA,-99.99,BCS,2013-03-17 13:35:00,
2013-03-17 06:40:00,46.6,47.0,31.02,ESE,107,0.0,3.6,100,0.00,NA,NA,-99.99,BCS,2013-03-17 13:40:00,
2013-03-17 06:45:00,46.6,47.0,31.02,SE,131,1.5,1.5,100,0.00,NA,NA,-99.99,BCS,2013-03-17 13:45:00,
2013-03-17 06:50:00,46.6,47.0,31.02,SSE,168,0.0,1.5,100,0.00,NA,NA,-99.99,BCS,2013-03-17 13:50:00,
2013-03-17 06:55:00,46.4,47.0,31.02,South,171,0.3,1.2,100,0.00,NA,NA,-99.99,BCS,2013-03-17 13:55:00,
2013-03-17 07:00:00,46.5,47.0,31.02,South,172,0.0,1.2,100,0.00,NA,NA,-99.99,BCS,2013-03-17 14:00:00,
2013-03-17 07:05:00,46.8,47.0,31.02,South,171,0.0,0.3,100,0.00,NA,NA,-99.99,BCS,2013-03-17 14:05:00,
2013-03-17 07:10:00,47.0,47.0,31.03,South,173,0.0,0.9,100,0.00,NA,NA,-99.99,BCS,2013-03-17 14:10:00,
2013-03-17 07:15:00,47.0,47.0,31.02,South,175,0.0,1.8,100,0.00,NA,NA,-99.99,BCS,2013-03-17 14:15:00,
2013-03-17 07:20:00,46.9,47.0,31.03,South,176,0.0,0.6,100,0.00,NA,NA,-99.99,BCS,2013-03-17 14:20:00,
2013-03-17 07:25:00,46.6,47.0,31.03,South,176,0.0,0.0,100,0.00,NA,NA,-99.99,BCS,2013-03-17 14:25:00,
2013-03-17 07:30:00,46.4,46.0,31.03,South,177,0.0,1.8,100,0.00,NA,NA,-99.99,BCS,2013-03-17 14:30:00,
2013-03-17 07:35:00,46.3,46.0,31.04,South,179,0.0,1.2,100,0.00,NA,NA,-99.99,BCS,2013-03-17 14:35:00,
2013-03-17 07:40:00,46.3,46.0,31.03,South,180,0.0,1.2,100,0.00,NA,NA,-99.99,BCS,2013-03-17 14:40:00,
2013-03-17 07:45:00,46.4,46.0,31.04,South,180,0.0,0.3,100,0.00,NA,NA,-99.99,BCS,2013-03-17 14:45:00,
2013-03-17 07:50:00,47.0,47.0,31.04,NNE,14,1.8,2.4,100,0.00,NA,NA,-99.99,BCS,2013-03-17 14:50:00,
2013-03-17 07:55:00,47.4,47.0,31.04,North,9,0.3,2.4,100,0.00,NA,NA,-99.99,BCS,2013-03-17 14:55:00,
2013-03-17 08:00:00,47.9,48.0,31.04,North,350,1.5,2.1,100,0.00,NA,NA,-99.99,BCS,2013-03-17 15:00:00,
2013-03-17 08:10:00,48.9,49.0,31.04,North,355,0.9,1.2,100,0.00,NA,NA,-99.99,BCS,2013-03-17 15:10:00,
2013-03-17 08:15:00,49.1,49.0,31.05,North,351,1.8,1.8,100,0.00,NA,NA,-99.99,BCS,2013-03-17 15:15:00,
2013-03-17 08:20:00,49.1,49.0,31.05,North,350,1.2,1.8,100,0.00,NA,NA,-99.99,BCS,2013-03-17 15:20:00,
2013-03-17 08:30:00,49.3,49.0,31.05,NW,323,0.6,1.2,100,0.00,NA,NA,-99.99,BCS,2013-03-17 15:30:00,
2013-03-17 08:35:00,49.4,49.0,31.05,NW,323,0.0,0.9,100,0.00,NA,NA,-99.99,BCS,2013-03-17 15:35:00,
2013-03-17 08:40:00,49.3,49.0,31.05,West,281,0.9,1.8,100,0.00,NA,NA,-99.99,BCS,2013-03-17 15:40:00,
2013-03-17 08:45:00,49.8,50.0,31.05,NW,305,1.2,1.8,100,0.00,NA,NA,-99.99,BCS,2013-03-17 15:45:00,
2013-03-17 08:50:00,50.5,50.0,31.05,NNW,347,0.9,3.9,100,0.00,NA,NA,-99.99,BCS,2013-03-17 15:50:00,
2013-03-17 08:55:00,51.4,51.0,31.05,WNW,297,1.2,3.3,99,0.00,NA,NA,-99.99,BCS,2013-03-17 15:55:00,
2013-03-17 09:00:00,52.2,51.0,31.05,North,356,1.2,3.3,97,0.00,NA,NA,-99.99,BCS,2013-03-17 16:00:00,
2013-03-17 09:05:00,52.8,52.0,31.06,WSW,250,2.7,4.8,95,0.00,NA,NA,-99.99,BCS,2013-03-17 16:05:00,
2013-03-17 09:10:00,53.3,51.0,31.05,WNW,284,3.9,4.8,93,0.00,NA,NA,-99.99,BCS,2013-03-17 16:10:00,
2013-03-17 09:15:00,53.6,51.0,31.05,West,268,2.4,6.0,90,0.00,NA,NA,-99.99,BCS,2013-03-17 16:15:00,
2013-03-17 09:20:00,54.1,51.0,31.05,WNW,292,2.4,4.2,89,0.00,NA,NA,-99.99,BCS,2013-03-17 16:20:00,
2013-03-17 09:25:00,54.5,50.0,31.05,NNW,329,1.2,6.0,87,0.00,NA,NA,-99.99,BCS,2013-03-17 16:25:00,
2013-03-17 09:30:00,54.9,51.0,31.05,NNW,343,1.2,3.9,86,0.00,NA,NA,-99.99,BCS,2013-03-17 16:30:00,
2013-03-17 09:40:00,55.3,50.0,31.05,NNW,347,1.8,4.2,83,0.00,NA,NA,-99.99,BCS,2013-03-17 16:40:00,
2013-03-17 09:45:00,55.7,51.0,31.05,NW,324,1.2,3.6,82,0.00,NA,NA,-99.99,BCS,2013-03-17 16:45:00,
2013-03-17 09:55:00,56.3,49.0,31.04,NNW,329,2.7,5.4,78,0.00,NA,NA,-99.99,BCS,2013-03-17 16:55:00,
2013-03-17 10:00:00,56.8,50.0,31.05,West,260,0.3,5.4,77,0.00,NA,NA,-99.99,BCS,2013-03-17 17:00:00,
2013-03-17 10:10:00,57.4,49.0,31.04,WNW,285,1.8,3.6,73,0.00,NA,NA,-99.99,BCS,2013-03-17 17:10:00,
2013-03-17 10:15:00,57.9,49.0,31.05,WNW,297,0.9,4.2,71,0.00,NA,NA,-99.99,BCS,2013-03-17 17:15:00,
2013-03-17 10:20:00,58.5,48.0,31.05,NNE,12,2.7,3.6,66,0.00,NA,NA,-99.99,BCS,2013-03-17 17:20:00,
2013-03-17 10:30:00,58.9,47.0,31.05,WSW,247,1.8,4.2,66,0.00,NA,NA,-99.99,BCS,2013-03-17 17:30:00,
2013-03-17 10:35:00,59.1,46.0,31.05,WSW,245,2.7,6.0,64,0.00,NA,NA,-99.99,BCS,2013-03-17 17:35:00,
2013-03-17 10:40:00,59.2,46.0,31.05,NNE,27,0.9,6.3,62,0.00,NA,NA,-99.99,BCS,2013-03-17 17:40:00,
2013-03-17 10:50:00,59.6,46.0,31.05,WSW,243,3.6,7.5,61,0.00,NA,NA,-99.99,BCS,2013-03-17 17:50:00,
2013-03-17 10:55:00,59.9,46.0,31.05,West,267,4.2,6.3,61,0.00,NA,NA,-99.99,BCS,2013-03-17 17:55:00,
2013-03-17 11:05:00,61.1,47.0,31.05,NNW,334,4.8,5.7,60,0.00,NA,NA,-99.99,BCS,2013-03-17 18:05:00,
2013-03-17 11:10:00,60.5,46.0,31.05,NNE,30,3.0,9.0,59,0.00,NA,NA,-99.99,BCS,2013-03-17 18:10:00,
2013-03-17 11:15:00,60.2,45.0,31.05,NNW,344,4.2,7.5,58,0.00,NA,NA,-99.99,BCS,2013-03-17 18:15:00,
2013-03-17 11:20:00,60.7,47.0,31.04,NW,322,3.9,6.3,59,0.00,NA,NA,-99.99,BCS,2013-03-17 18:20:00,
2013-03-17 11:25:00,60.6,46.0,31.04,North,4,4.8,8.1,57,0.00,NA,NA,-99.99,BCS,2013-03-17 18:25:00,
2013-03-17 11:30:00,61.1,45.0,31.04,North,8,1.2,7.8,56,0.00,NA,NA,-99.99,BCS,2013-03-17 18:30:00,
2013-03-17 11:35:00,61.3,45.0,31.03,NNE,14,2.7,6.3,57,0.00,NA,NA,-99.99,BCS,2013-03-17 18:35:00,
2013-03-17 11:45:00,61.4,44.0,31.04,North,3,6.3,7.2,53,0.00,NA,NA,-99.99,BCS,2013-03-17 18:45:00,
2013-03-17 11:50:00,61.5,43.0,31.03,NNW,335,5.1,8.7,51,0.00,NA,NA,-99.99,BCS,2013-03-17 18:50:00,
2013-03-17 11:55:00,61.9,44.0,31.04,NNW,342,3.6,7.5,51,0.00,NA,NA,-99.99,BCS,2013-03-17 18:55:00,
2013-03-17 12:00:00,63.0,45.0,31.04,NNE,20,3.6,5.1,52,0.00,NA,NA,-99.99,BCS,2013-03-17 19:00:00,
2013-03-17 12:10:00,62.7,43.0,31.03,North,353,4.5,6.0,49,0.00,NA,NA,-99.99,BCS,2013-03-17 19:10:00,
2013-03-17 12:15:00,63.2,44.0,31.03,WSW,243,3.0,6.0,49,0.00,NA,NA,-99.99,BCS,2013-03-17 19:15:00,
2013-03-17 12:20:00,63.7,43.0,31.03,West,276,0.6,4.5,50,0.00,NA,NA,-99.99,BCS,2013-03-17 19:20:00,
2013-03-17 12:25:00,64.1,46.0,31.03,West,275,1.5,6.3,53,0.00,NA,NA,-99.99,BCS,2013-03-17 19:25:00,
2013-03-17 12:35:00,65.1,47.0,31.03,South,177,1.5,4.5,53,0.00,NA,NA,-99.99,BCS,2013-03-17 19:35:00,
2013-03-17 12:40:00,65.3,46.0,31.02,NNW,348,2.4,5.7,51,0.00,NA,NA,-99.99,BCS,2013-03-17 19:40:00,
2013-03-17 12:45:00,65.2,45.0,31.02,NNW,332,3.3,5.7,50,0.00,NA,NA,-99.99,BCS,2013-03-17 19:45:00,
2013-03-17 12:50:00,65.4,45.0,31.02,NNE,25,1.5,5.7,49,0.00,NA,NA,-99.99,BCS,2013-03-17 19:50:00,
2013-03-17 12:55:00,65.2,45.0,31.01,NNE,24,3.9,7.2,49,0.00,NA,NA,-99.99,BCS,2013-03-17 19:55:00,
2013-03-17 13:00:00,65.1,46.0,31.01,NW,312,2.4,7.2,50,0.00,NA,NA,-99.99,BCS,2013-03-17 20:00:00,
2013-03-17 13:10:00,65.0,46.0,31.01,North,349,2.4,7.8,51,0.00,NA,NA,-99.99,BCS,2013-03-17 20:10:00,
2013-03-17 13:15:00,65.5,46.0,31.01,North,356,2.1,5.7,51,0.00,NA,NA,-99.99,BCS,2013-03-17 20:15:00,
2013-03-17 13:20:00,66.5,47.0,31.00,NE,38,3.0,3.3,49,0.00,NA,NA,-99.99,BCS,2013-03-17 20:20:00,
2013-03-17 13:25:00,66.7,47.0,31.00,NNW,331,3.9,4.8,50,0.00,NA,NA,-99.99,BCS,2013-03-17 20:25:00,
2013-03-17 13:30:00,66.5,46.0,31.00,WNW,300,6.0,6.6,50,0.00,NA,NA,-99.99,BCS,2013-03-17 20:30:00,
2013-03-17 13:35:00,66.3,47.0,31.00,North,358,2.4,8.7,51,0.00,NA,NA,-99.99,BCS,2013-03-17 20:35:00,
2013-03-17 13:40:00,66.7,48.0,31.00,WSW,249,2.1,6.3,51,0.00,NA,NA,-99.99,BCS,2013-03-17 20:40:00,
2013-03-17 13:45:00,67.0,48.0,31.00,West,279,6.3,8.1,50,0.00,NA,NA,-99.99,BCS,2013-03-17 20:45:00,
2013-03-17 13:50:00,67.0,48.0,30.99,North,359,3.0,7.5,50,0.00,NA,NA,-99.99,BCS,2013-03-17 20:50:00,
2013-03-17 14:00:00,66.8,47.0,30.99,NNW,344,2.7,5.4,49,0.00,NA,NA,-99.99,BCS,2013-03-17 21:00:00,
2013-03-17 14:05:00,67.5,47.0,30.98,West,281,2.7,7.8,48,0.00,NA,NA,-99.99,BCS,2013-03-17 21:05:00,
2013-03-17 14:10:00,67.4,46.0,30.98,North,11,5.4,6.9,46,0.00,NA,NA,-99.99,BCS,2013-03-17 21:10:00,
2013-03-17 14:15:00,66.5,45.0,30.98,NNW,328,4.2,10.5,46,0.00,NA,NA,-99.99,BCS,2013-03-17 21:15:00,
2013-03-17 14:25:00,67.3,45.0,30.98,SSE,161,1.2,9.0,46,0.00,NA,NA,-99.99,BCS,2013-03-17 21:25:00,
2013-03-17 14:35:00,66.9,44.0,30.98,NNW,342,6.0,8.1,44,0.00,NA,NA,-99.99,BCS,2013-03-17 21:35:00,
2013-03-17 14:40:00,66.8,44.0,30.97,NW,310,5.4,9.3,43,0.00,NA,NA,-99.99,BCS,2013-03-17 21:40:00,
2013-03-17 14:50:00,66.6,45.0,30.97,NNW,343,5.4,12.0,45,0.00,NA,NA,-99.99,BCS,2013-03-17 21:50:00,
2013-03-17 14:55:00,67.1,46.0,30.97,NNE,13,3.6,9.9,47,0.00,NA,NA,-99.99,BCS,2013-03-17 21:55:00,
2013-03-17 15:00:00,67.1,45.0,30.97,NNW,337,3.6,10.8,46,0.00,NA,NA,-99.99,BCS,2013-03-17 22:00:00,
2013-03-17 15:10:00,65.9,45.0,30.96,WNW,301,12.3,12.3,47,0.00,NA,NA,-99.99,BCS,2013-03-17 22:10:00,
2013-03-17 15:20:00,66.1,46.0,30.96,NNE,14,4.8,10.2,48,0.00,NA,NA,-99.99,BCS,2013-03-17 22:20:00,
2013-03-17 15:25:00,66.6,47.0,30.96,NW,323,8.1,8.4,49,0.00,NA,NA,-99.99,BCS,2013-03-17 22:25:00,
2013-03-17 15:30:00,66.4,46.0,30.96,North,7,3.0,9.6,48,0.00,NA,NA,-99.99,BCS,2013-03-17 22:30:00,
2013-03-17 15:35:00,66.4,47.0,30.96,NW,304,4.8,8.7,48,0.00,NA,NA,-99.99,BCS,2013-03-17 22:35:00,
2013-03-17 15:40:00,66.6,46.0,30.95,WNW,290,3.0,9.3,49,0.00,NA,NA,-99.99,BCS,2013-03-17 22:40:00,
2013-03-17 15:50:00,67.4,47.0,30.95,NW,312,5.1,8.4,48,0.00,NA,NA,-99.99,BCS,2013-03-17 22:50:00,
2013-03-17 15:55:00,66.7,46.0,30.95,NNW,345,5.7,10.2,48,0.00,NA,NA,-99.99,BCS,2013-03-17 22:55:00,
2013-03-17 16:00:00,66.7,46.0,30.95,NNE,13,3.0,9.6,47,0.00,NA,NA,-99.99,BCS,2013-03-17 23:00:00,
2013-03-17 16:10:00,67.1,46.0,30.95,North,359,2.1,7.8,47,0.00,NA,NA,-99.99,BCS,2013-03-17 23:10:00,
2013-03-17 16:15:00,67.5,45.0,30.95,WSW,249,3.3,8.4,45,0.00,NA,NA,-99.99,BCS,2013-03-17 23:15:00,
2013-03-17 16:20:00,68.2,45.0,30.95,NNW,333,3.9,6.3,44,0.00,NA,NA,-99.99,BCS,2013-03-17 23:20:00,
2013-03-17 16:25:00,68.3,44.0,30.95,WSW,247,2.7,9.0,43,0.00,NA,NA,-99.99,BCS,2013-03-17 23:25:00,
2013-03-17 16:30:00,68.0,44.0,30.95,North,353,5.4,9.3,43,0.00,NA,NA,-99.99,BCS,2013-03-17 23:30:00,
2013-03-17 16:40:00,68.4,46.0,30.95,North,355,5.4,11.7,44,0.00,NA,NA,-99.99,BCS,2013-03-17 23:40:00,
2013-03-17 16:45:00,68.0,45.0,30.95,NW,323,3.6,6.6,44,0.00,NA,NA,-99.99,BCS,2013-03-17 23:45:00,
2013-03-17 16:50:00,67.7,46.0,30.95,NW,315,6.6,7.2,46,0.00,NA,NA,-99.99,BCS,2013-03-17 23:50:00,
2013-03-17 16:55:00,67.4,48.0,30.95,WNW,288,3.0,11.1,51,0.00,NA,NA,-99.99,BCS,2013-03-17 23:55:00,
2013-03-17 17:00:00,66.7,49.0,30.95,NW,306,6.0,10.2,53,0.00,NA,NA,-99.99,BCS,2013-03-18 00:00:00,
2013-03-17 17:05:00,66.3,49.0,30.95,West,279,4.5,10.5,55,0.00,NA,NA,-99.99,BCS,2013-03-18 00:05:00,
2013-03-17 17:10:00,66.2,50.0,30.95,WSW,251,3.3,9.6,56,0.00,NA,NA,-99.99,BCS,2013-03-18 00:10:00,
2013-03-17 17:15:00,66.1,50.0,30.95,WNW,302,2.7,5.7,55,0.00,NA,NA,-99.99,BCS,2013-03-18 00:15:00,
2013-03-17 17:20:00,66.2,50.0,30.96,WNW,296,3.0,6.9,56,0.00,NA,NA,-99.99,BCS,2013-03-18 00:20:00,
2013-03-17 17:25:00,65.7,50.0,30.95,NW,312,5.4,7.8,57,0.00,NA,NA,-99.99,BCS,2013-03-18 00:25:00,
2013-03-17 17:30:00,65.3,50.0,30.95,WSW,255,3.9,10.8,58,0.00,NA,NA,-99.99,BCS,2013-03-18 00:30:00,
2013-03-17 17:35:00,65.1,51.0,30.95,West,281,5.4,6.9,60,0.00,NA,NA,-99.99,BCS,2013-03-18 00:35:00,
2013-03-17 17:40:00,64.7,51.0,30.95,West,264,3.3,6.0,61,0.00,NA,NA,-99.99,BCS,2013-03-18 00:40:00,
2013-03-17 17:45:00,64.3,51.0,30.95,WSW,252,4.2,11.4,62,0.00,NA,NA,-99.99,BCS,2013-03-18 00:45:00,
2013-03-17 17:50:00,63.5,51.0,30.95,WSW,237,4.2,10.2,62,0.00,NA,NA,-99.99,BCS,2013-03-18 00:50:00,
2013-03-17 17:55:00,62.8,50.0,30.95,West,269,5.1,8.7,62,0.00,NA,NA,-99.99,BCS,2013-03-18 00:55:00,
2013-03-17 18:00:00,62.3,49.0,30.95,WSW,243,3.6,8.1,62,0.00,NA,NA,-99.99,BCS,2013-03-18 01:00:00,
2013-03-17 18:05:00,61.9,49.0,30.95,WSW,240,3.0,7.2,62,0.00,NA,NA,-99.99,BCS,2013-03-18 01:05:00,
2013-03-17 18:10:00,61.7,49.0,30.95,NW,325,2.7,7.2,63,0.00,NA,NA,-99.99,BCS,2013-03-18 01:10:00,
2013-03-17 18:20:00,61.4,47.0,30.95,NNW,329,2.1,7.8,61,0.00,NA,NA,-99.99,BCS,2013-03-18 01:20:00,
2013-03-17 18:25:00,61.4,47.0,30.95,WNW,289,3.6,6.3,60,0.00,NA,NA,-99.99,BCS,2013-03-18 01:25:00,
2013-03-17 18:30:00,61.3,47.0,30.95,WNW,299,2.1,6.9,60,0.00,NA,NA,-99.99,BCS,2013-03-18 01:30:00,
2013-03-17 18:35:00,61.2,47.0,30.95,NNW,330,0.9,6.9,59,0.00,NA,NA,-99.99,BCS,2013-03-18 01:35:00,
2013-03-17 18:40:00,61.2,46.0,30.95,West,269,1.2,7.5,59,0.00,NA,NA,-99.99,BCS,2013-03-18 01:40:00,
2013-03-17 18:45:00,60.8,46.0,30.96,NW,311,3.6,5.7,58,0.00,NA,NA,-99.99,BCS,2013-03-18 01:45:00,
2013-03-17 18:55:00,60.2,46.0,30.95,NNW,340,1.8,6.0,61,0.00,NA,NA,-99.99,BCS,2013-03-18 01:55:00,
2013-03-17 19:00:00,60.0,46.0,30.95,WNW,286,4.2,5.7,61,0.00,NA,NA,-99.99,BCS,2013-03-18 02:00:00,
2013-03-17 19:05:00,59.8,46.0,30.95,NW,312,0.9,5.7,61,0.00,NA,NA,-99.99,BCS,2013-03-18 02:05:00,
2013-03-17 19:15:00,59.2,46.0,30.96,WNW,302,2.4,5.1,62,0.00,NA,NA,-99.99,BCS,2013-03-18 02:15:00,
2013-03-17 19:20:00,59.0,46.0,30.95,NW,305,3.9,6.6,62,0.00,NA,NA,-99.99,BCS,2013-03-18 02:20:00,
2013-03-17 19:25:00,58.7,46.0,30.95,WNW,283,3.3,5.7,63,0.00,NA,NA,-99.99,BCS,2013-03-18 02:25:00,
2013-03-17 19:35:00,58.1,46.0,30.95,NNW,345,2.1,5.4,64,0.00,NA,NA,-99.99,BCS,2013-03-18 02:35:00,
2013-03-17 19:40:00,57.9,46.0,30.95,NW,322,3.0,5.4,64,0.00,NA,NA,-99.99,BCS,2013-03-18 02:40:00,
2013-03-17 19:50:00,57.7,46.0,30.95,NNW,330,2.1,5.4,64,0.00,NA,NA,-99.99,BCS,2013-03-18 02:50:00,
2013-03-17 19:55:00,57.7,45.0,30.95,WNW,291,0.9,2.7,63,0.00,NA,NA,-99.99,BCS,2013-03-18 02:55:00,
2013-03-17 20:00:00,57.5,45.0,30.96,North,9,1.2,2.7,63,0.00,NA,NA,-99.99,BCS,2013-03-18 03:00:00,
2013-03-17 20:10:00,57.3,44.0,30.96,NNW,344,0.9,3.6,63,0.00,NA,NA,-99.99,BCS,2013-03-18 03:10:00,
2013-03-17 20:15:00,57.2,45.0,30.96,NNW,343,0.0,2.1,64,0.00,NA,NA,-99.99,BCS,2013-03-18 03:15:00,
2013-03-17 20:20:00,57.1,46.0,30.96,SE,146,0.6,2.4,66,0.00,NA,NA,-99.99,BCS,2013-03-18 03:20:00,
2013-03-17 20:25:00,56.8,46.0,30.96,SE,146,1.5,1.8,67,0.00,NA,NA,-99.99,BCS,2013-03-18 03:25:00,
2013-03-17 20:30:00,56.7,47.0,30.96,SSE,152,1.5,2.1,69,0.00,NA,NA,-99.99,BCS,2013-03-18 03:30:00,
2013-03-17 20:35:00,56.4,46.0,30.96,SSE,148,1.8,2.1,70,0.00,NA,NA,-99.99,BCS,2013-03-18 03:35:00,
2013-03-17 20:40:00,56.3,47.0,30.97,SSE,168,0.9,2.7,72,0.00,NA,NA,-99.99,BCS,2013-03-18 03:40:00,
2013-03-17 20:45:00,56.2,47.0,30.96,South,169,1.2,2.1,73,0.00,NA,NA,-99.99,BCS,2013-03-18 03:45:00,
2013-03-17 20:50:00,56.1,47.0,30.96,SSE,148,0.6,2.1,73,0.00,NA,NA,-99.99,BCS,2013-03-18 03:50:00,
2013-03-17 21:00:00,55.6,48.0,30.97,East,94,0.9,1.8,75,0.00,NA,NA,-99.99,BCS,2013-03-18 04:00:00,
2013-03-17 21:05:00,55.5,48.0,30.97,SE,144,0.6,1.8,75,0.00,NA,NA,-99.99,BCS,2013-03-18 04:05:00,
2013-03-17 21:10:00,55.3,48.0,30.97,SSE,156,0.0,2.7,76,0.00,NA,NA,-99.99,BCS,2013-03-18 04:10:00,
2013-03-17 21:15:00,55.1,48.0,30.97,SSE,151,0.9,1.5,77,0.00,NA,NA,-99.99,BCS,2013-03-18 04:15:00,
2013-03-17 21:20:00,55.0,48.0,30.97,East,92,1.2,2.4,77,0.00,NA,NA,-99.99,BCS,2013-03-18 04:20:00,
2013-03-17 21:25:00,54.9,48.0,30.97,ESE,117,0.0,2.1,78,0.00,NA,NA,-99.99,BCS,2013-03-18 04:25:00,
2013-03-17 21:30:00,54.8,48.0,30.98,SE,127,0.9,1.8,79,0.00,NA,NA,-99.99,BCS,2013-03-18 04:30:00,
2013-03-17 21:35:00,54.6,49.0,30.98,ESE,119,0.0,2.1,80,0.00,NA,NA,-99.99,BCS,2013-03-18 04:35:00,
2013-03-17 21:45:00,54.2,48.0,30.98,ESE,120,0.3,1.8,82,0.00,NA,NA,-99.99,BCS,2013-03-18 04:45:00,
2013-03-17 21:50:00,54.1,49.0,30.98,SE,129,1.2,1.8,83,0.00,NA,NA,-99.99,BCS,2013-03-18 04:50:00,
2013-03-17 21:55:00,54.1,49.0,30.98,SE,143,1.2,2.1,84,0.00,NA,NA,-99.99,BCS,2013-03-18 04:55:00,
2013-03-17 22:00:00,54.0,49.0,30.98,South,169,1.5,2.1,85,0.00,NA,NA,-99.99,BCS,2013-03-18 05:00:00,
2013-03-17 22:10:00,54.1,50.0,30.98,South,171,0.3,2.4,85,0.00,NA,NA,-99.99,BCS,2013-03-18 05:10:00,
2013-03-17 22:15:00,54.1,50.0,30.98,South,182,0.6,1.8,86,0.00,NA,NA,-99.99,BCS,2013-03-18 05:15:00,
2013-03-17 22:25:00,53.7,50.0,30.98,SSE,152,2.7,3.3,86,0.00,NA,NA,-99.99,BCS,2013-03-18 05:25:00,
2013-03-17 22:30:00,53.6,50.0,30.99,South,175,1.2,3.3,87,0.00,NA,NA,-99.99,BCS,2013-03-18 05:30:00,
2013-03-17 22:35:00,53.4,49.0,30.99,South,185,0.6,3.0,86,0.00,NA,NA,-99.99,BCS,2013-03-18 05:35:00,
2013-03-17 22:40:00,53.3,49.0,30.99,SSE,162,1.2,3.6,86,0.00,NA,NA,-99.99,BCS,2013-03-18 05:40:00,
2013-03-17 22:45:00,53.1,49.0,30.99,SSE,165,1.5,2.7,87,0.00,NA,NA,-99.99,BCS,2013-03-18 05:45:00,
2013-03-17 22:50:00,53.1,49.0,30.99,SSW,194,0.6,3.3,88,0.00,NA,NA,-99.99,BCS,2013-03-18 05:50:00,
2013-03-17 22:55:00,53.1,49.0,30.99,South,187,0.0,2.7,88,0.00,NA,NA,-99.99,BCS,2013-03-18 05:55:00,
2013-03-17 23:00:00,52.8,49.0,30.99,South,185,0.0,2.1,88,0.00,NA,NA,-99.99,BCS,2013-03-18 06:00:00,
2013-03-17 23:05:00,52.4,50.0,31.00,South,185,0.6,1.2,88,0.00,NA,NA,-99.99,BCS,2013-03-18 06:05:00,
2013-03-17 23:15:00,51.8,49.0,31.00,South,184,0.3,1.2,90,0.00,NA,NA,-99.99,BCS,2013-03-18 06:15:00,
2013-03-17 23:20:00,51.5,49.0,31.00,South,178,0.0,1.8,91,0.00,NA,NA,-99.99,BCS,2013-03-18 06:20:00,
2013-03-17 23:25:00,51.3,49.0,31.00,South,174,1.8,2.4,92,0.00,NA,NA,-99.99,BCS,2013-03-18 06:25:00,
2013-03-17 23:30:00,51.2,49.0,31.00,South,174,0.6,2.4,93,0.00,NA,NA,-99.99,BCS,2013-03-18 06:30:00,
2013-03-17 23:35:00,51.6,51.0,30.99,South,172,2.4,3.0,96,0.00,NA,NA,-99.99,BCS,2013-03-18 06:35:00,
2013-03-17 23:40:00,51.7,51.0,30.99,South,177,2.1,3.0,95,0.00,NA,NA,-99.99,BCS,2013-03-18 06:40:00,
2013-03-17 23:45:00,51.4,51.0,30.98,SSE,167,1.5,2.7,95,0.00,NA,NA,-99.99,BCS,2013-03-18 06:45:00,
2013-03-17 23:50:00,51.3,50.0,30.98,South,179,1.5,2.4,96,0.00,NA,NA,-99.99,BCS,2013-03-18 06:50:00,
2013-03-17 23:55:00,51.2,50.0,30.98,South,171,0.0,2.7,96,0.00,NA,NA,-99.99,BCS,2013-03-18 06:55:00,